This demonstration page uses our WeatherBlox Daily Observations layout. Learn more.

Left ArrowRight Arrow

41.12389, -100.76542

Hourly Observations for February 28, 2021

Temp ( °F °C ) Dew Point ( °F °C ) Humidity (%) Winds ( mph kmh ) Pressure ( in mb ) Visibility ( mi km ) Precip ( " mm )
12:53 am 00:53 Clear 25 -3.9 22 -5.6 88 88 NNW 6 9 29.90 1013 10 16 0.00 0.00
1:53 am 01:53 Clear 25 -3.9 22 -5.6 88 88 WNW 8 13 29.90 1013 10 16 0.00 0.00
2:45 am 02:45 Partly Cloudy 25 -3.9 21 -6.1 85 85 WNW 13 20 30.03 1017 10 16 0.00 0.00
2:53 am 02:53 Mostly Cloudy 27 -2.8 23 -5 85 85 WNW 16 26 29.92 1013 10 16 0.00 0.00
3:33 am 03:33 Cloudy 29 -1.7 26 -3.3 89 89 WNW 14 22 30.01 1016 10 16 0.00 0.00
3:53 am 03:53 Cloudy 31 -0.6 26 -3.3 82 82 NW 18 30 29.92 1013 10 16 0.00 0.00
4:19 am 04:19 Partly Cloudy 28 -2.2 23 -5 81 81 NW 14 22 30.03 1017 10 16 0.00 0.00
4:53 am 04:53 Partly Cloudy 29 -1.7 23 -5 78 78 WNW 16 26 29.95 1014 10 16 0.00 0.00
5:03 am 05:03 Mostly Cloudy 30 -1.1 24 -4.4 79 79 NW 20 31 30.05 1017 10 16 0.00 0.00
5:53 am 05:53 Cloudy 28 -2.2 20 -6.7 72 72 NW 22 35 30.00 1016 10 16 0.00 0.00
6:53 am 06:53 Mostly Cloudy 24 -4.4 16 -8.9 71 71 NW 17 28 30.06 1018 10 16 0.00 0.00
7:00 am 07:00 Partly Cloudy 24 -4.4 16 -8.9 71 71 NNW 15 24 30.17 1022 10 16 0.00 0.00
7:42 am 07:42 Mostly Cloudy 23 -5 15 -9.4 72 72 NW 14 22 30.20 1023 10 16 0.00 0.00
7:53 am 07:53 Cloudy 24 -4.4 16 -8.9 71 71 NNW 15 24 30.11 1020 10 16 0.00 0.00
8:19 am 08:19 Partly Cloudy 25 -3.9 15 -9.4 66 66 NNW 18 30 30.21 1023 10 16 0.00 0.00
8:53 am 08:53 Sunny 25 -3.9 15 -9.4 66 66 NNW 20 31 30.15 1021 10 16 0.00 0.00
9:53 am 09:53 Mostly Sunny 28 -2.2 15 -9.4 58 58 NNW 23 37 30.19 1022 10 16 0.00 0.00
10:53 am 10:53 Partly Cloudy 31 -0.6 16 -8.9 54 54 NNW 14 22 30.20 1023 10 16 0.00 0.00
11:53 am 11:53 Mostly Sunny 35 1.7 17 -8.3 48 48 NNW 17 28 30.20 1023 10 16 0.00 0.00
12:53 pm 12:53 Mostly Sunny 38 3.3 18 -7.8 44 44 NNW 13 20 30.19 1022 10 16 0.00 0.00
1:53 pm 13:53 Sunny 40 4.4 19 -7.2 43 43 NW 13 20 30.16 1021 10 16 0.00 0.00
2:53 pm 14:53 Sunny 41 5 21 -6.1 45 45 WNW 12 19 30.15 1021 10 16 0.00 0.00
3:53 pm 15:53 Sunny 42 5.6 19 -7.2 40 40 NW 10 17 30.14 1021 10 16 0.00 0.00
4:53 pm 16:53 Sunny 42 5.6 16 -8.9 35 35 WNW 12 19 30.14 1021 10 16 0.00 0.00
5:53 pm 17:53 Sunny 41 5 15 -9.4 35 35 W 8 13 30.14 1021 10 16 0.00 0.00
6:53 pm 18:53 Clear 37 2.8 15 -9.4 41 41 S 3 6 30.15 1021 10 16 0.00 0.00
7:53 pm 19:53 Clear 26 -3.3 16 -8.9 66 66 Calm 30.19 1022 10 16 0.00 0.00
8:53 pm 20:53 Clear 26 -3.3 16 -8.9 66 66 Calm 30.19 1023 10 16 0.00 0.00
9:53 pm 21:53 Clear 28 -2.2 16 -8.9 60 60 SW 3 6 30.21 1023 10 16 0.00 0.00
10:53 pm 22:53 Clear 31 -0.6 16 -8.9 54 54 SW 8 13 30.22 1023 10 16 0.00 0.00
11:53 pm 23:53 Clear 26 -3.3 16 -8.9 66 66 NW 7 11 30.24 1024 10 16 0.00 0.00

Powered by AerisWeather